COSMOS 886 DEB

Satellite information

Favourite Embed

Satellite Type and Status

DEBRISIN ORBIT

Key statistics

Satellite COSMOS 886 DEB at a glance.

Uptime

17784

Days in orbit

Revolutions

≈ 12.5

Per day

Orbit

MEO

Medium Earth Orbit

Inclination

65.7

Latest

Satellite identification and parameters

Extended collection of information and parameters for COSMOS 886 DEB.

Object identification

Identified? True

Debris? True

Object name: COSMOS 886 DEB

International designator: 1976-126T

Object number (NORAD): 9722

Object ID (CCSDS): 9722

Country: COMMONWEALTH OF INDEPENDENT STATES (CIS)

Current information (Y/N): Y

RCS size: SMALL

Orbital parameters

Period: 114.773 minutes

Inclination: 65.7497 deg

SMA: 7823.249 km

Apoapsis: 2064.586 km

Periapsis: 825.641 km

RAAN: 236.1166 deg

Eccentricy: 0.07918358

Argument of periapsis: 154.9153 deg

Mean anomaly: 209.2609 deg

Mean motion: 12.54648487 rev/day

Mean motion (dot): 0.0000102 rev/day2

B* drag term: 0.0020474429 1/REarth

Two-line elements (TLE)

Creation date: Sept. 1, 2025, 7:24 p.m.

Reference frame: TEME

Reference center: EARTH

Epoch: Sept. 1, 2025, 8:37 a.m. UTC

TLE line 0: 0 COSMOS 886 DEB

TLE line 1: 1 09722U 76126T 25244.35917392 .00001020 00000-0 20474-2 0 9990

TLE line 2: 2 09722 65.7497 236.1166 0791836 154.9153 209.2609 12.54648487200736

Live tracking on map

Real-time ground track for satellite COSMOS 886 DEB.

In-orbit conjunctions

A list of the most updated potential collisions computed for object COSMOS 886 DEB.

Target Orbit TCA Probability of collision Miss distance Type
NOAA 16 DEB SSO 2024-11-11 21:15:59 0.0002425867 175.0 (m) DEBRIS
CZ-6A DEB SSO 2024-07-03 10:34:54 0.0002353794 87.0 (m) DEBRIS

Associated space launch

Second generation ASAT satellite

COSMOS 886 DEB was lifted into orbit during the mission ‘Tsiklon-2 | IS-A 4’, on board a Tsiklon-2 space rocket.

The launch took place on Dec. 27, 1976, 12:05 p.m. from 90.

For more information about the launch, click the button.

Launch to space Tsiklon-2 | IS-A 4
Tsiklon-2 | IS-A 4

Agency: N/A

Status: Launch Successful

Launch date: Dec. 27, 1976, 12:05 p.m. UTC

Rocket: Tsiklon-2

Launch pad: 90

Location: Baikonur Cosmodrome, Republic of Kazakhstan

...

Latest news about this satellite

There are no fresh news available about this satellite. Check back as we update our databases every day.


Newsletter sign-up

Weekly statistics, charts and insights to help you stay on top of the space industry.